Copper Mountain, CO

11:25 AM MDT on May 25, 2017 (GMT -0600)
Copper Mountain

Weather History for KCCU - June, 2014

Change the Weather History Date:

Wednesday, June 4, 2014

  Actual Average Record
Temperature  
Mean Temperature 52 °F -  
Max Temperature 59 °F - 66 °F (2012)
Min Temperature 44 °F - 26 °F (2005)
Degree Days  
Heating Degree Days 14    
Growing Degree Days 2 (Base 50)    
Moisture  
Dew Point -3 °F    
Average Humidity 11    
Maximum Humidity 22    
Minimum Humidity 6    
Precipitation  
Precipitation 0.00 in - 0.02 in (2005)
Sea Level Pressure  
Sea Level Pressure 30.42 in    
Wind  
Wind Speed 13 mph (SW)    
Max Wind Speed 23 mph    
Max Gust Speed 36 mph    
Visibility 10 miles    
Events Thunderstorm    
T = Trace of Precipitation, MM = Missing Value Source: NWS Daily Summary

Daily Weather History Graph

Daily Weather History Graph

Search for Another Location

Airport or City:

Trip Planner

Search our weather history database for the weather conditions in past years. The results will help you decide how hot, cold, wet, or windy it might be!

Date:

Astronomy

Jun. 04, 2014 Rise Set
Actual Time 5:38 AM MDT 8:27 PM MDT
Civil Twilight 5:06 AM MDT 8:59 PM MDT
Nautical Twilight 4:26 AM MDT 9:40 PM MDT
Astronomical Twilight 3:40 AM MDT 10:26 PM MDT
Moon 11:59 AM MDT (6/4) 12:29 AM MDT (6/4)
Length of Visible Light 15h 53m
Length of Day
14h 49m
Waxing Crescent, 39% of the Moon is Illuminated
Jun 4
Waxing Crescent
Jun 5
First Quarter
Jun 12
Full
Jun 19
Last Quarter
Jun 27
New

Hourly Weather History & Observations

Time (MDT) Temp. Windchill Dew Point Humidity Pressure Visibility Wind Dir Wind Speed Gust Speed Precip Events Conditions
12:16 AM 46.4 °F 39.8 °F 3.2 °F 17% 30.44 in 10.0 mi WSW 16.1 mph 25.3 mph N/A   Clear
12:36 AM 46.4 °F 38.7 °F -0.4 °F 14% 30.44 in 10.0 mi West 20.7 mph 27.6 mph N/A   Clear
12:56 AM 46.4 °F 39.8 °F 1.4 °F 16% 30.44 in 10.0 mi West 16.1 mph 23.0 mph N/A   Clear
1:16 AM 44.6 °F 36.9 °F -0.4 °F 15% 30.43 in 10.0 mi West 18.4 mph 21.9 mph N/A   Clear
1:36 AM 44.6 °F 37.8 °F -0.4 °F 15% 30.43 in 10.0 mi West 15.0 mph 21.9 mph N/A   Clear
1:56 AM 44.6 °F 38.1 °F 1.4 °F 17% 30.43 in 10.0 mi West 13.8 mph 19.6 mph N/A   Clear
2:16 AM 44.6 °F 39.7 °F -0.4 °F 15% 30.42 in 10.0 mi WSW 9.2 mph 18.4 mph N/A   Clear
2:36 AM 44.6 °F 39.7 °F -0.4 °F 15% 30.43 in 10.0 mi West 9.2 mph - N/A   Clear
2:56 AM 44.6 °F 40.2 °F -4.0 °F 13% 30.42 in 10.0 mi SW 8.1 mph - N/A   Clear
3:16 AM 44.6 °F 39.2 °F -4.0 °F 13% 30.42 in 10.0 mi WSW 10.4 mph - N/A   Clear
3:36 AM 44.6 °F 39.7 °F -5.8 °F 12% 30.42 in 10.0 mi SSW 9.2 mph - N/A   Clear
3:56 AM 44.6 °F 40.2 °F -7.6 °F 11% 30.42 in 10.0 mi SSW 8.1 mph 16.1 mph N/A   Clear
4:16 AM 46.4 °F 41.5 °F -9.4 °F 9% 30.42 in 10.0 mi SSW 10.4 mph 19.6 mph N/A   Clear
4:36 AM 44.6 °F 39.2 °F -9.4 °F 10% 30.42 in 10.0 mi SSW 10.4 mph 16.1 mph N/A   Clear
4:56 AM 44.6 °F 43.1 °F -9.4 °F 10% 30.42 in 10.0 mi SSW 3.5 mph - N/A   Clear
5:16 AM 44.6 °F 38.1 °F -7.6 °F 11% 30.43 in 10.0 mi West 13.8 mph - N/A   Clear
5:36 AM 44.6 °F 38.4 °F -5.8 °F 12% 30.43 in 10.0 mi West 12.7 mph - N/A   Clear
5:56 AM 44.6 °F 39.2 °F -5.8 °F 12% 30.43 in 10.0 mi West 10.4 mph - N/A   Clear
6:16 AM 44.6 °F 39.7 °F -5.8 °F 12% 30.44 in 10.0 mi West 9.2 mph - N/A   Clear
6:36 AM 44.6 °F 40.7 °F -5.8 °F 12% 30.44 in 10.0 mi West 6.9 mph - N/A   Clear
6:56 AM 44.6 °F 41.4 °F -4.0 °F 13% 30.44 in 10.0 mi South 5.8 mph - N/A   Clear
7:16 AM 46.4 °F 43.5 °F 1.4 °F 16% 30.44 in 10.0 mi South 5.8 mph - N/A   Clear
7:36 AM 46.4 °F 41.9 °F -2.2 °F 13% 30.44 in 10.0 mi South 9.2 mph - N/A   Clear
7:56 AM 46.4 °F 41.1 °F -0.4 °F 14% 30.44 in 10.0 mi South 11.5 mph - N/A   Clear
8:16 AM 46.4 °F 41.1 °F -4.0 °F 12% 30.44 in 10.0 mi South 11.5 mph - N/A   Clear
8:36 AM 48.2 °F - -2.2 °F 12% 30.44 in 10.0 mi South 12.7 mph - N/A   Clear
8:56 AM 51.8 °F - -0.4 °F 12% 30.44 in 10.0 mi South 11.5 mph 18.4 mph N/A   Clear
9:16 AM 50.0 °F - -5.8 °F 10% 30.44 in 10.0 mi South 15.0 mph - N/A   Clear
9:36 AM 51.8 °F - -4.0 °F 10% 30.45 in 10.0 mi South 12.7 mph 18.4 mph N/A   Clear
9:56 AM 53.6 °F - -9.4 °F 7% 30.44 in 10.0 mi South 6.9 mph 17.3 mph N/A   Clear
10:16 AM 51.8 °F - -4.0 °F 10% 30.44 in 10.0 mi SSE 10.4 mph 17.3 mph N/A   Clear
10:36 AM 53.6 °F - -13.0 °F 6% 30.43 in 10.0 mi SSE 17.3 mph 21.9 mph N/A   Clear
10:56 AM 53.6 °F - -11.2 °F 7% 30.45 in 10.0 mi South 15.0 mph 24.2 mph N/A   Clear
11:16 AM 53.6 °F - -5.8 °F 9% 30.44 in 10.0 mi South 15.0 mph 20.7 mph N/A   Clear
11:36 AM 53.6 °F - -5.8 °F 9% 30.44 in 10.0 mi South 13.8 mph - N/A   Clear
11:56 AM 53.6 °F - -4.0 °F 9% 30.44 in 10.0 mi SSW 10.4 mph 26.5 mph N/A   Clear
12:16 PM 53.6 °F - -5.8 °F 9% 30.43 in 10.0 mi South 16.1 mph 24.2 mph N/A   Clear
12:36 PM 53.6 °F - -14.8 °F 6% 30.43 in 10.0 mi SSW 9.2 mph 23.0 mph N/A   Clear
12:56 PM 53.6 °F - -5.8 °F 9% 30.43 in 10.0 mi SSW 9.2 mph 26.5 mph N/A   Clear
1:16 PM 55.4 °F - -5.8 °F 8% 30.42 in 10.0 mi West 16.1 mph 23.0 mph N/A   Clear
1:36 PM 55.4 °F - -13.0 °F 6% 30.42 in 10.0 mi WSW 3.5 mph - N/A   Clear
1:56 PM 59.0 °F - -5.8 °F 7% 30.42 in 10.0 mi SSW 6.9 mph - N/A   Clear
2:16 PM 59.0 °F - -0.4 °F 9% 30.41 in 10.0 mi West 17.3 mph 21.9 mph N/A   Clear
2:36 PM 59.0 °F - -2.2 °F 8% 30.41 in 10.0 mi WSW 13.8 mph 25.3 mph N/A   Clear
2:56 PM 59.0 °F - -5.8 °F 7% 30.41 in 10.0 mi SW 13.8 mph 25.3 mph N/A   Clear
3:16 PM 59.0 °F - -4.0 °F 8% 30.41 in 10.0 mi SW 8.1 mph 24.2 mph N/A   Clear
3:36 PM 59.0 °F - -9.4 °F 6% 30.40 in 10.0 mi SW 13.8 mph 26.5 mph N/A   Clear
3:56 PM 59.0 °F - 1.4 °F 10% 30.41 in 10.0 mi SW 10.4 mph 25.3 mph N/A   Clear
4:16 PM 59.0 °F - 1.4 °F 10% 30.39 in 10.0 mi West 19.6 mph 26.5 mph N/A   Clear
4:36 PM 59.0 °F - 1.4 °F 10% 30.39 in 10.0 mi WSW 12.7 mph 20.7 mph N/A   Clear
4:56 PM 59.0 °F - -5.8 °F 7% 30.39 in 10.0 mi WSW 6.9 mph 17.3 mph N/A   Clear
5:16 PM 59.0 °F - -7.6 °F 6% 30.38 in 10.0 mi West 18.4 mph 27.6 mph N/A   Clear
5:36 PM 59.0 °F - -2.2 °F 8% 30.38 in 10.0 mi West 20.7 mph 27.6 mph N/A   Clear
5:56 PM 59.0 °F - -4.0 °F 8% 30.38 in 10.0 mi West 15.0 mph 35.7 mph N/A   Clear
6:16 PM 59.0 °F - 1.4 °F 10% 30.38 in 10.0 mi WSW 16.1 mph 25.3 mph N/A   Clear
6:36 PM 59.0 °F - -5.8 °F 7% 30.38 in 10.0 mi WSW 23.0 mph 32.2 mph N/A   Clear
6:56 PM 55.4 °F - -4.0 °F 9% 30.39 in 10.0 mi WSW 20.7 mph 27.6 mph N/A   Clear
7:16 PM 55.4 °F - -2.2 °F 9% 30.40 in 10.0 mi WSW 19.6 mph 31.1 mph N/A   Clear
7:36 PM 53.6 °F - -4.0 °F 9% 30.40 in 10.0 mi WSW 18.4 mph 31.1 mph N/A   Clear
7:56 PM 53.6 °F - 1.4 °F 12% 30.40 in 10.0 mi West 21.9 mph 26.5 mph N/A   Clear
8:16 PM 53.6 °F - 3.2 °F 13% 30.40 in 10.0 mi West 20.7 mph 27.6 mph N/A   Clear
8:36 PM 53.6 °F - 5.0 °F 14% 30.40 in 10.0 mi West 19.6 mph 27.6 mph N/A   Clear
9:16 PM 51.8 °F - 5.0 °F 15% 30.40 in 10.0 mi WSW 15.0 mph 26.5 mph N/A   Clear
9:36 PM 50.0 °F - 3.2 °F 15% 30.41 in 10.0 mi West 15.0 mph 21.9 mph N/A   Clear
9:56 PM 51.8 °F - 1.4 °F 13% 30.43 in 10.0 mi West 12.7 mph - N/A Thunderstorm Clear
10:16 PM 50.0 °F - 3.2 °F 15% 30.43 in 10.0 mi West 16.1 mph 20.7 mph N/A   Clear
10:36 PM 46.4 °F 39.2 °F 8.6 °F 22% 30.43 in 10.0 mi West 18.4 mph 27.6 mph N/A   Clear
10:56 PM 48.2 °F - 3.2 °F 16% 30.43 in 10.0 mi West 8.1 mph - N/A   Clear
11:16 PM 46.4 °F 43.5 °F 5.0 °F 18% 30.43 in 10.0 mi West 5.8 mph - N/A   Clear
11:36 PM 46.4 °F 39.8 °F 3.2 °F 17% 30.43 in 10.0 mi West 16.1 mph 19.6 mph N/A   Clear
11:56 PM 46.4 °F 42.4 °F 3.2 °F 17% 30.43 in 10.0 mi West 8.1 mph - N/A   Clear